Regional Weather Roundup
Issued by NWS Jackson, KY

Home | Current Version | Previous Version | Graphics & Text | Print | Product List | Glossary On
Versions: 1 2 3 4 5 6 7 8 9 10 11 12 13 14 15 16 17 18 19 20 21 22 23 24 25 26 27
258
ASUS43 KJKL 211010
RWRJKL

EAST KENTUCKY HOURLY WEATHER ROUNDUP
NATIONAL WEATHER SERVICE JACKSON KY
600 AM EDT THU MAY 21 2015

NOTE: "FAIR" INDICATES FEW OR NO CLOUDS BELOW 12,000 FEET WITH
NO SIGNIFICANT WEATHER AND/OR OBSTRUCTIONS TO VISIBILITY.

* THESE REPORTS ARE NOT UNDER NWS QUALITY CONTROL AND MAY NOT
  REPORT WEATHER SUCH AS PRECIPITATION AND FOG.

KYZ079-080-083-085-087-088-110-112-115-119-120-211100
...EASTERN KENTUCKY...

CITY           SKY/WX    TMP DP  RH WIND       PRES   REMARKS
JACKSON        LGT RAIN  54  52  93 N3        29.92R FOG
LONDON         CLOUDY    59  50  72 NW8       29.93R
SOMERSET*      CLOUDY    55  50  82 N6        29.98R
MONTICELLO*    CLOUDY    55  55 100 NW10      30.00R FOG
MIDDLESBORO*   CLOUDY    61  59  93 N6        29.91R
HARLAN APT*    CLOUDY    59  59 100 NW3       29.91R
HAZARD APT*    CLOUDY    55  55 100 NW5       29.92R
BLACK MTN*       N/A     57  57 100 W2          N/A
PIKEVILLE APT* CLOUDY    54  52  94 CALM      29.90R
BIG SANDY*     DRIZZLE   54  53  97 N3        29.91R
MOREHEAD APT*  CLOUDY    54  48  82 NE7       29.96S
$$

KYZ035-036-041-042-044-050-067-078-099-211100
...CENTRAL KENTUCKY...

CITY           SKY/WX    TMP DP  RH WIND       PRES   REMARKS
MT STERLING*   CLOUDY    54  48  82 CALM      29.96S
FLEMING/MASON* CLOUDY    50  46  87 N8        29.97S
DANVILLE*      CLOUDY    52  50  93 NW7       29.99R FOG
RICHMOND*      CLOUDY    54  48  82 NW7       29.95R
LEXINGTON      CLOUDY    52  48  86 N9        29.97R
FRANKFORT      CLOUDY    52  47  83 NW8       29.98R HAZE
$$

KYZ091>093-OHZ055-061-077-WVZ005-015-034-035-042-211100
...SOUTHERN OHIO/WEST VIRGINIA...

CITY           SKY/WX    TMP DP  RH WIND       PRES   REMARKS
COVINGTON      CLOUDY    51  44  77 N9        29.99R
COLUMBUS       CLOUDY    47  44  90 N6        29.99S
DAYTON         CLOUDY    47  43  86 N9        30.02R
WILMINGTON     CLOUDY    47  43  86 NE9       29.98S
HUNTINGTON     LGT RAIN  50  50 100 N8        29.92R FOG
CHARLESTON     LGT RAIN  53  51  93 N6        29.91R FOG
PINEVILLE*     LGT RAIN  56  56 100 MISG      29.93S
BECKLEY        CLOUDY    57  48  72 SE9       29.89F
BLUEFIELD      CLOUDY    59  51  75 VRB5      29.92S
$$

VAZ002-007-008-TNZ017-027-036-066-071-211100
...SOUTHWEST VIRGINIA/EAST TENNESSEE...

CITY           SKY/WX    TMP DP  RH WIND       PRES   REMARKS
WISE*          LGT RAIN  59  59 100 CALM      29.92R
JONESVILLE*    RAIN      61  61 100 CALM      29.91R
ABINGDON*      RAIN      60  58  92 CALM      29.90S
BRISTOL        LGT RAIN  61  60  97 CALM      29.88F
KNOXVILLE      CLOUDY    66  64  93 W12       29.89R
OAK RIDGE      MOCLDY    66  63  90 CALM      29.91R
CROSSVILLE     CLOUDY    58  56  93 NW13G21   29.98R FOG
NASHVILLE      DRIZZLE   55  52  89 NW12      30.04R
$$

...KEY TO REMARKS...
VSB - VISIBILITY IN MILES
WCI - WIND CHILL INDEX
HX  - HEAT INDEX

$$



USA.gov is the U.S. government's official web portal to all federal, state and local government web resources and services.